Location: Axtheid
(49.6213°N, 11.8205°E)
Time: 15:58:11
(UTC+00:00)

Cosmos 1340 - Pass Details

Date: 18 February 2020
Orbit: 502 x 505 km, 81.2° (Epoch: 07 April)

Event Time Altitude Azimuth Distance (km) Brightness Sun altitude
Rises 05:24:29 0° 349° (N) 2,614 6.1 -9.3°
Reaches altitude 10° 05:26:38 10° 352° (N) 1,723 5.2 -9.0°
Maximum altitude 05:30:24 69° 77° (ENE) 543 3.0 -8.4°
Drops below altitude 10° 05:34:08 10° 161° (SSE) 1,707 5.7 -7.8°
Sets 05:36:15 0° 164° (SSE) 2,586 6.6 -7.4°
